RH
84 81 81 81 81 80 80 79 78 78 77 76 73 70 70 64 76 74 66 60 61 64 75 57 50 57 66 66 68 85 95 82 75 76 63 48 54 49 34 31 43 62 71 79 100
84 83 82 81 80 80 81 81 80 79 78 77 73 72 72 71 75 69 74 60 64 71 49 50 54 60 70 68 75 89 90 71 60 66 59 54 60 75 62 35 74 95 76 91 100
84 83 83 82 82 81 82 82 82 81 79 76 73 74 71 74 81 58 48 52 65 52 52 50 49 71 74 63 80 86 85 63 63 58 61 68 78 79 82 41 47 92 91 96 98
84 84 85 83 83 84 84 84 83 82 79 76 76 76 75 78 83 43 52 50 45 42 44 50 53 72 71 75 65 86 80 69 63 66 77 79 82 70 82 66 62 80 92 92 91
86 85 85 86 85 86 85 84 83 81 80 78 78 76 80 82 82 40 47 43 41 44 52 58 65 61 71 69 65 73 68 61 62 68 78 72 77 80 88 74 63 59 94 97 92
86 86 86 88 88 87 84 82 82 82 82 80 75 73 79 90 41 39 38 38 43 47 54 55 64 58 62 64 71 66 62 61 52 62 71 75 75 72 83 77 74 72 73 91 93
87 86 88 88 88 87 84 81 82 76 75 76 72 69 70 76 40 39 34 31 38 45 58 59 58 65 75 64 59 60 67 61 58 52 69 80 89 81 63 89 82 81 77 89 94
87 88 89 90 90 89 86 54 56 61 41 59 67 71 78 43 42 31 32 31 32 48 51 54 57 68 79 72 61 65 68 82 57 49 54 76 94 68 60 81 85 82 79 84 96
87 89 90 90 91 91 73 47 41 39 34 39 63 59 68 29 28 29 32 33 33 58 55 55 59 80 76 98 76 72 94 84 67 46 55 72 78 64 66 83 87 84 82 79 97
90 89 90 90 91 87 63 46 30 34 34 40 47 51 33 31 28 30 30 33 37 67 74 74 84 83 80 94 95 85 84 80 77 52 54 84 81 68 72 74 81 87 84 82 94
88 86 79 87 72 63 55 52 62 61 67 72 62 61 45 32 30 31 29 35 40 47 67 80 91 97 79 84 81 83 90 91 74 60 57 66 85 72 78 76 85 93 88 84 84
83 71 45 45 47 65 57 72 73 72 85 62 61 59 46 38 42 34 33 48 55 71 65 86 89 73 65 80 86 87 90 84 68 60 63 58 81 69 80 80 75 82 90 83 91
81 44 32 31 45 61 59 64 70 69 83 69 53 38 33 31 42 42 44 53 64 73 75 83 64 50 61 91 97 74 83 77 72 64 70 62 62 73 74 75 79 83 81 86 96
73 62 39 24 39 67 61 59 67 68 84 35 34 29 29 35 48 44 50 53 69 85 76 79 55 59 58 66 85 98 80 72 67 91 96 76 90 66 74 80 78 73 90 87 90
52 39 37 46 55 67 56 62 65 67 77 33 35 26 32 39 40 42 55 69 86 88 77 68 73 68 70 54 68 74 79 79 80 95 91 79 93 69 73 83 90 95 91 88 90
23 40 44 52 51 51 57 66 65 77 87 53 41 42 49 40 42 36 68 63 76 86 75 81 62 67 66 51 50 79 81 90 87 87 100 82 85 70 88 66 73 80 81 82 87
23 43 48 51 50 55 59 69 81 87 48 48 52 49 52 47 45 44 84 89 97 91 92 70 59 63 58 59 65 83 84 96 98 99 95 98 92 60 57 58 61 69 78 78 86
31 45 34 28 45 56 48 78 87 69 57 44 49 56 59 52 49 52 71 97 90 91 96 100 80 70 62 58 60 84 79 91 93 97 92 84 96 67 48 46 52 54 72 79 86
36 47 30 22 41 58 74 93 81 58 49 58 60 68 68 56 64 64 73 96 95 93 78 100 80 50 70 71 50 66 92 86 91 89 94 88 67 51 38 45 63 66 77 89 86
47 51 36 35 39 40 89 81 62 46 44 52 78 68 78 71 69 73 82 95 77 59 82 76 96 71 61 68 52 61 65 91 96 92 86 83 68 52 45 42 63 74 78 81 88
51 74 36 30 34 76 90 83 46 37 41 52 63 72 68 74 70 76 73 62 66 63 63 88 97 78 77 84 72 83 93 94 81 95 95 87 68 42 46 41 44 73 73 76 86
63 80 40 21 84 99 88 67 53 49 42 48 46 51 57 55 75 81 84 60 55 50 76 82 97 98 92 69 80 84 81 82 90 90 97 96 66 55 59 52 51 57 60 81 82
93 93 43 34 86 96 77 67 61 57 54 52 55 57 52 56 71 62 61 48 54 57 87 79 92 96 78 98 83 87 80 88 93 92 97 96 78 58 67 69 63 61 70 88 89
90 80 87 92 94 86 91 82 70 53 52 52 54 52 64 66 54 72 63 52 53 56 64 70 98 96 95 84 96 100 95 86 80 96 97 96 86 72 75 78 74 69 86 94 88
93 90 76 93 88 93 88 88 73 66 51 54 56 56 68 88 84 85 66 68 59 55 60 90 96 98 86 73 93 90 94 94 94 90 98 94 95 87 84 82 79 72 68 80 95
88 84 92 94 73 90 86 73 75 66 61 63 68 62 63 89 78 82 75 80 80 71 83 92 97 94 94 80 88 92 87 98 98 89 84 94 95 82 72 68 74 72 73 74 65
72 75 84 87 90 84 87 77 71 75 60 52 61 73 72 66 60 59 62 66 70 81 98 100 97 97 94 73 97 84 95 96 96 92 88 91 91 71 81 79 80 75 71 72 68
Wind_Speed
19 20 21 21 22 23 23 23 23 23 23 23 22 23 23 24 24 27 14 14 7 11 8 10 12 14 8 4 5 4 6 13 9 11 6 5 5 5 4 5 3 2 7 12 31
20 20 21 22 23 24 25 25 25 24 24 23 23 22 21 21 22 20 7 13 4 4 16 9 8 9 4 5 4 7 7 15 5 5 3 11 3 2 3 4 4 3 9 28 29
20 21 23 24 24 25 26 26 26 25 24 24 22 20 20 17 6 5 7 11 6 10 9 9 12 9 9 6 6 6 7 11 4 5 8 3 8 2 5 5 4 5 15 17 20
20 21 22 24 24 26 27 27 26 26 24 22 19 17 15 10 2 5 12 10 11 12 8 6 6 3 4 10 4 4 6 10 4 4 5 4 2 7 2 4 9 6 12 9 14
20 22 24 25 26 26 27 28 26 25 22 18 17 11 8 3 7 12 12 7 11 6 5 3 6 3 4 5 3 9 3 7 7 6 7 8 7 7 7 7 8 12 4 9 10
21 23 24 25 27 28 30 29 27 25 20 15 12 8 1 4 5 10 11 13 13 4 1 1 1 7 3 3 4 6 6 13 8 6 6 6 14 7 2 5 6 9 12 6 10
20 22 24 26 27 29 31 32 29 27 19 12 6 4 2 10 11 15 12 12 8 8 3 3 3 2 5 4 7 9 5 3 5 5 6 5 12 14 4 7 5 7 9 7 9
22 23 25 26 28 29 29 32 33 22 9 5 2 4 5 10 9 17 14 15 7 4 6 7 2 2 2 5 4 4 4 2 3 8 4 14 7 10 10 7 5 9 6 7 8
22 24 26 27 28 27 26 33 31 8 10 1 2 3 8 10 14 19 17 7 5 7 6 7 2 2 2 1 3 3 2 5 4 6 5 8 5 10 11 10 5 9 7 8 8
22 25 27 27 27 22 24 22 20 8 10 6 5 1 5 8 15 19 14 7 4 5 3 3 3 1 2 3 5 4 4 1 3 3 9 5 5 4 14 15 12 9 1 6 8
23 26 29 28 22 19 22 7 9 7 11 2 6 4 7 12 17 11 14 4 2 1 2 1 1 4 7 7 3 1 1 3 3 4 5 9 7 6 12 11 12 10 3 4 4
25 27 27 24 13 13 21 6 2 3 7 5 8 8 16 10 5 9 6 5 3 4 1 1 7 6 5 6 7 4 5 2 6 6 3 6 9 12 10 10 14 7 9 8 1
24 29 24 22 5 16 17 13 8 2 2 7 5 5 8 3 4 6 5 4 2 4 4 3 5 6 7 3 7 7 8 4 4 8 5 3 3 6 8 4 11 15 16 6 6
25 26 19 19 3 14 2 21 6 1 4 9 7 6 9 9 1 5 10 3 4 4 5 4 4 4 3 4 6 1 3 7 4 1 1 4 3 4 7 10 12 14 17 16 11
27 22 15 15 8 2 18 11 3 2 5 14 7 7 14 8 7 8 9 5 3 4 2 4 5 4 3 1 6 5 6 5 6 6 3 2 3 5 7 9 11 11 12 11 10
26 16 12 12 11 17 16 1 3 6 3 7 5 11 11 8 6 9 7 7 2 4 3 7 4 2 4 3 1 5 4 4 4 4 1 5 5 4 7 19 12 11 14 14 13
23 9 10 11 12 20 10 3 5 6 6 9 7 13 5 11 8 9 5 10 6 7 7 7 5 3 1 4 3 5 4 2 3 2 4 3 6 8 1 4 16 19 15 13 14
17 6 14 19 19 16 3 5 9 4 3 6 7 9 6 13 6 9 8 4 5 5 2 4 7 5 7 2 2 3 4 4 5 4 3 3 3 5 5 7 7 8 14 16 16
12 3 20 28 17 9 5 6 5 3 5 6 8 5 5 7 3 7 6 6 4 2 2 3 5 6 5 4 3 4 1 1 5 2 3 3 5 8 6 3 7 14 15 18 20
6 1 15 25 13 7 5 5 1 3 5 3 4 3 5 7 9 5 3 3 6 7 2 4 5 3 6 3 2 4 3 2 3 3 2 2 1 3 11 10 4 13 15 16 16
2 3 23 18 9 6 4 2 2 4 6 3 3 4 4 2 4 4 5 1 5 8 6 1 3 5 7 1 2 3 3 2 2 1 2 3 1 7 7 10 7 9 14 16 16
4 3 25 11 4 2 2 3 7 7 5 5 4 3 4 4 4 3 3 4 9 10 6 3 2 4 4 9 6 4 4 3 3 3 2 2 1 7 10 12 11 3 14 15 18
3 1 13 14 4 4 4 5 4 8 6 5 4 5 5 4 5 4 5 5 9 9 3 5 2 5 6 3 2 4 3 2 2 1 2 2 1 10 14 14 15 11 7 13 16
3 2 4 5 1 4 2 5 5 7 1 4 2 4 6 3 1 8 10 6 17 6 6 5 2 4 3 6 1 4 3 5 2 1 1 2 2 12 16 15 18 18 11 5 12
3 1 3 2 4 3 3 1 4 7 3 6 4 6 5 3 6 2 4 8 6 5 5 3 3 2 9 17 13 10 5 4 2 2 1 6 3 7 10 11 11 13 15 10 7
3 3 3 1 1 4 6 4 4 3 2 4 3 10 5 4 6 13 7 0 7 5 6 4 3 4 4 4 7 8 3 4 5 5 6 8 5 2 7 6 16 15 14 12 10
3 2 4 4 3 4 2 4 4 3 4 2 8 5 9 10 9 15 14 13 12 6 3 2 2 4 5 7 2 8 13 4 5 12 4 4 5 5 5 9 12 14 14 12 11
Wind_Direction
353 349 347 345 341 339 337 335 332 328 328 327 324 322 322 320 315 313 291 278 268 274 293 291 286 286 273 248 206 160 231 226 230 200 208 180 190 256 303 264 308 2 148 142 140
348 346 345 341 339 336 334 334 331 329 327 325 323 323 323 322 321 302 292 19 246 338 347 328 277 273 224 214 225 196 220 235 204 234 253 256 295 32 331 311 330 29 94 139 141
348 345 341 339 337 333 331 331 330 327 326 324 322 323 322 323 337 255 345 332 300 312 288 287 268 234 213 221 197 202 224 232 226 236 313 190 278 38 358 267 359 243 144 146 145
345 343 341 338 335 333 331 329 329 325 327 326 324 320 318 321 341 304 324 306 311 321 316 312 325 213 224 212 223 254 211 247 294 208 327 340 343 255 173 295 319 275 154 146 154
345 342 339 337 336 335 330 328 327 327 326 327 328 326 332 357 251 331 324 322 317 326 2 352 339 311 215 334 235 238 241 251 251 199 255 295 279 298 251 282 344 10 289 137 148
344 341 339 339 338 334 331 328 329 326 322 324 330 321 344 293 283 318 316 312 302 258 308 335 331 325 277 275 278 341 234 239 253 207 219 298 278 309 222 88 3 8 348 195 142
343 339 338 339 339 335 333 329 329 326 320 321 326 1 276 248 327 306 314 312 339 234 198 274 238 136 326 281 1 293 292 252 220 202 175 157 269 235 220 19 316 352 4 282 164
342 341 339 339 337 336 334 337 335 329 340 332 291 290 257 300 315 314 324 307 322 27 211 265 127 152 285 312 289 229 216 161 246 189 194 125 269 241 214 175 262 310 332 315 173
343 341 338 337 337 338 338 343 343 345 345 253 193 150 283 328 330 335 323 281 310 68 81 112 45 15 234 278 360 296 197 190 273 201 172 160 181 235 157 155 199 264 342 337 154
345 340 338 338 338 344 345 350 349 9 75 109 73 42 302 304 305 310 318 298 240 147 78 63 43 66 279 171 200 188 194 201 230 245 197 179 186 101 173 180 186 226 290 335 172
345 344 340 341 351 3 2 3 12 350 33 297 284 250 267 288 300 298 319 327 29 117 271 110 354 242 209 235 294 67 76 332 316 300 310 200 169 201 175 187 176 193 212 315 291
345 347 346 351 15 22 44 61 65 247 315 285 256 251 270 267 309 313 4 14 353 299 35 79 261 235 212 253 240 242 252 236 301 277 240 268 204 199 186 178 177 150 232 194 21
348 349 351 352 42 13 46 27 346 330 263 298 260 279 291 296 303 317 350 325 326 331 327 195 255 263 225 151 218 232 231 188 248 347 290 282 300 194 192 182 173 179 206 161 83
348 350 355 359 36 348 23 347 358 310 62 339 353 345 340 317 54 337 351 325 349 307 319 260 303 359 272 221 147 155 226 213 207 266 269 344 269 238 184 186 193 192 181 184 153
350 353 4 6 337 10 328 344 38 58 55 324 333 325 322 15 320 342 17 5 298 289 325 270 319 359 349 8 160 202 160 143 184 170 68 318 102 272 178 197 197 184 184 174 156
354 359 4 356 349 334 336 328 86 44 303 331 328 336 352 354 359 315 9 355 343 331 309 256 264 318 231 312 240 146 87 53 102 137 90 221 145 258 196 212 188 183 187 178 176
356 5 14 356 326 334 338 74 44 80 330 338 332 330 344 346 336 355 355 32 31 6 7 331 337 291 192 341 24 83 75 59 55 27 209 67 170 241 251 205 193 191 187 167 170
358 45 16 351 342 338 16 56 66 278 350 295 319 320 14 8 343 337 358 8 17 62 1 18 335 24 345 324 218 177 137 148 159 156 203 114 266 245 233 220 187 178 172 166 174
357 54 1 354 348 340 66 48 174 300 304 310 331 1 339 355 344 5 6 9 30 17 85 5 281 324 300 316 148 282 318 219 101 340 73 204 276 302 310 33 158 159 162 174 178
0 69 352 353 6 48 65 111 123 8 322 6 9 10 344 328 1 30 337 351 337 9 164 272 295 279 313 320 240 125 202 54 13 114 178 319 26 349 340 348 288 164 173 180 177
29 53 350 360 31 46 95 220 327 349 9 355 330 299 345 328 283 294 269 346 343 325 327 249 214 290 341 74 211 58 340 21 114 140 184 132 0 358 323 295 292 187 180 173 176
46 43 357 11 50 16 50 346 336 354 356 3 346 360 3 335 303 293 288 228 14 347 330 290 244 281 253 279 309 278 174 150 116 222 212 121 327 14 346 327 339 279 181 176 170
79 281 11 31 74 344 325 353 12 7 4 359 337 11 21 323 338 252 319 310 6 339 337 303 319 329 357 72 29 50 7 280 154 91 296 122 216 26 1 351 354 357 166 161 161
76 34 340 43 73 121 47 357 350 336 332 352 303 28 357 325 333 299 303 307 328 297 293 0 266 213 217 234 104 299 336 319 127 331 160 97 321 358 355 351 354 4 11 85 154
46 246 179 355 343 76 75 304 337 358 356 355 349 358 323 310 310 255 300 319 295 344 4 92 265 224 260 271 257 240 233 272 168 169 322 158 83 359 347 333 353 6 17 47 77
103 117 10 130 358 63 358 322 322 324 263 303 302 307 285 207 206 281 283 282 253 334 348 341 287 327 301 306 51 97 337 228 66 102 100 116 101 27 332 340 21 11 8 15 36
40 73 98 350 31 73 252 260 297 355 301 272 314 316 303 273 255 269 264 253 246 278 304 311 311 357 282 322 235 37 347 29 101 45 344 69 22 40 339 26 25 9 0 358 357